Star Trek: Starfleet Academy

Информация о пользователе

Привет, Гость! Войдите или зарегистрируйтесь.


Вы здесь » Star Trek: Starfleet Academy » Партнерство


Партнерство

Тем 1 страница 20 из 20

Тема Ответов Просмотров Последнее сообщение
1 Важно: Space Fiction  Joan Crise
10 50 2018-09-27 19:01:03  PR
2 Важно: Star Wars Medley  Joan Crise
26 118 2018-09-24 14:48:27  PR
129 571 2018-08-02 15:17:40  PR
62 968 2018-07-21 20:44:07  PR
5 Важно: Star Wars: Decadence  Joan Crise
3 12 2018-04-29 19:17:32  PR
6 Важно: Закрыта Мы в каталогах  Starfleet Academy
0 251 2015-04-14 22:02:16  Starfleet Academy
45 235 2018-10-02 07:38:31  PR
21 118 2018-10-02 01:39:50  PR
29 375 2018-08-07 01:43:21  PR
10 New Jersey  Joan Crise
3 42 2018-06-25 22:34:08  PR
36 178 2018-01-11 10:08:15  PR
12 Planetary Moe  Joan Crise
6 35 2017-12-05 13:43:28  PR
77 290 2017-08-18 14:23:04  PR
32 126 2017-07-17 18:24:40  PR
40 179 2017-06-01 21:26:44  PR
17 76 2017-04-01 00:30:50  PR
19 123 2017-02-05 09:59:51  PR
18 Мийрон  Joan Crise
5 55 2016-02-25 22:43:03  Мийрон
19 Serifa  Joan Crise
0 20 2015-10-09 11:21:51  Joan Crise
2 224 2015-04-03 10:51:12  PR

Вы здесь » Star Trek: Starfleet Academy » Партнерство


Рейтинг форумов | Создать форум бесплатно © 2007–2017 «QuadroSystems» LLC